Weather in Motril

Spain     36°44′46″N   3°31′42″W
temp.,
°C
wind,
m/s
gust,
m/s
humid.,
%
clouds,
%
prec.,
mm/h
press.,
hPa
HPBL,
m
16 may, sun
sun1623:00+19w12570 0.0 101516
02:00+19nnw22520 0.0 101412
05:00+19ne22450 0.0 101313
08:00+20ne22455 0.0 101413
11:00+24s11410 0.0 1014288
14:00+24sw22430 0.0 1014511
17:00+25wsw34382 0.0 1012512
20:00+25w44430 0.0 1011130
17 may, mon
mon1723:00+24nne55340 0.0 101134
02:00+22nne33380 0.0 101214
05:00+21nne22411 0.0 101213
08:00+22nnw333897 0.0 101316
11:00+24se33405 0.0 1015343
14:00+22se34584 0.0 1017450
17:00+22ssw216415 0.0 1016395
20:00+20ssw22720 0.0 1017222
18 may, tue
tue1823:00+18s11875 0.0 101951
02:00+17wsw229048 0.0 102049
05:00+16nw119213 0.0 102056
08:00+17w118455 0.0 102064
11:00+18ssw227862 0.0 1022383
14:00+18ssw327548 0.0 1021476
17:00+18ssw227448 0.0 1020378
20:00+17ssw127938 0.0 1020201
19 may, wed
wed1923:00+16e118774 0.0 102259
02:00+16e118520 0.0 102118
05:00+16e11835 0.0 102014
08:00+17e22815 0.0 102269
11:00+19ese347537 0.0 1023401
14:00+20se337510 0.0 1023451
17:00+19se33734 0.0 1022377
20:00+18se22784 0.0 1021223
20 may, thu
thu2023:00+17e11893 0.0 102492
02:00+17wnw11855 0.0 102312
05:00+16wsw12885 0.0 102221
08:00+16w11875 0.0 102365
11:00+18ssw217610 0.0 1023331
14:00+19s2271100 0.0 1022401
17:00+20s2264100 0.0 1020330
20:00+18ssw1172100 0.0 1020196